Tracking 31027 objects as of 19-Jul-2025
HD Live streaming from Space Station
objects crossing your sky now

COSMOS 2499 DEB

Track COSMOS 2499 DEB now!
10-day predictions


NORAD ID: 49926
Int'l Code: 2014-028H
Perigee: 959.4 km
Apogee: 1,601.5 km
Inclination: 82.4 °
Period: 111.0 minutes
Semi major axis: 7651 km
RCS: Unknown
Launch date: May 23, 2014
Source: Commonwealth of Independent States (former USSR) (CIS)
Launch site: PLESETSK MISSILE AND SPACE COMPLEX (PKMTR)

Note: This is SATELLITE DEBRIS
Your satellite tracking list
CZ-4C DEB
Track 1 satellite(s)




NASA's NSSDC Master Catalog

Two Line Element Set (TLE):
1 49926U 14028H   25197.47539513  .00004677  00000-0  10769-1 0  9994
2 49926  82.3778 108.2618 0419578  28.1712 334.1419 12.97144196174379
Source of the keplerian elements: AFSPC